SCP
0 0 -0 -0 -0 -0 -0 0 -0 0 0 0 0 1 1 0 0 0 0 0 0 0 0 0 -0 -0 -0 -0 -0 -0 -0 -0 0 0 -0 0 0 0 0 0 0 0 0 0
0 -0 -0 -0 0 -0 -0 -0 -0 -0 -0 1 1 1 1 1 1 0 0 0 0 1 0 0 0 0 -0 -0 -0 -0 -0 -0 -0 0 0 0 0 1 0 0 0 0 0 0
0 0 0 0 0 0 0 -0 -0 -0 1 1 1 1 1 1 1 1 0 0 1 1 1 1 1 0 0 0 0 0 0 0 0 0 0 0 0 1 0 0 0 0 0 0
0 0 0 0 0 0 0 0 0 0 1 2 2 1 1 1 1 1 0 0 0 0 1 1 1 2 0 0 0 0 0 0 0 0 0 0 0 0 0 0 -0 0 0 -0
0 0 0 0 0 0 0 0 1 0 1 1 1 1 1 1 0 0 0 0 0 1 0 1 1 1 2 1 0 0 0 0 1 1 0 0 0 0 0 0 -0 -0 -0 -0
0 0 0 0 0 0 0 0 1 1 1 1 1 0 2 1 0 0 0 0 0 0 1 1 1 1 1 2 1 1 1 1 1 1 1 0 0 0 0 0 -0 -0 0 0
0 0 0 0 0 0 0 1 1 1 1 1 1 1 1 0 0 0 0 0 0 0 0 1 1 1 1 2 2 3 1 1 1 1 1 1 1 1 0 0 0 0 0 1
0 0 0 0 0 0 1 0 0 0 0 0 0 0 0 0 0 0 0 0 0 0 0 0 0 1 1 1 2 2 3 2 1 1 1 1 1 1 1 1 1 1 1 1
0 0 0 0 0 0 0 0 0 0 0 0 0 0 0 0 0 0 0 0 0 0 0 0 0 1 1 1 1 1 2 1 3 2 1 1 1 2 2 2 1 1 2 2
0 0 0 0 0 0 0 0 0 0 0 0 0 0 0 0 0 0 0 0 0 0 0 0 0 0 1 1 1 1 1 1 1 3 2 2 2 2 2 2 2 3 2 2
0 0 0 0 0 0 0 0 0 0 0 0 0 0 0 0 0 0 0 0 0 0 0 0 0 0 0 1 1 1 1 1 4 4 3 2 0 0 2 2 2 2 2 2
0 0 0 0 0 0 0 0 0 0 0 0 0 0 0 0 0 0 0 0 0 0 0 0 0 0 1 1 1 1 1 1 1 1 1 1 1 1 0 0 0 0 0 0
0 0 0 0 0 0 0 0 0 0 0 0 0 0 0 0 0 0 0 0 0 0 0 0 0 0 0 1 1 1 1 1 1 1 2 2 1 1 1 0 0 0 0 0
0 0 0 0 0 0 0 0 0 0 0 0 0 0 0 0 0 0 0 0 0 0 0 0 0 0 0 0 1 1 1 1 1 1 0 1 1 1 1 0 0 0 0 0
0 0 0 0 0 0 0 0 0 0 0 0 0 0 0 0 0 0 0 0 0 0 0 0 0 0 0 0 0 0 1 1 1 1 1 1 0 0 0 0 0 0 0 0
0 0 0 0 0 0 0 0 0 0 -0 -0 0 0 0 0 0 0 0 0 0 0 0 0 0 0 0 0 0 0 0 0 1 1 1 0 1 0 0 0 0 0 0 0
0 0 0 0 0 0 0 0 0 0 0 0 0 0 0 0 0 0 0 0 0 0 0 0 0 0 0 0 0 0 0 0 0 0 0 0 1 0 0 0 0 0 0 0
0 0 0 0 0 -0 -0 0 0 0 0 0 0 0 0 0 0 0 0 0 0 0 0 0 0 0 0 0 0 1 0 0 1 1 0 1 0 0 0 0 0 0 0 0
0 0 0 0 0 0 0 0 0 0 0 0 0 0 0 0 0 0 0 0 0 0 0 0 0 0 0 0 0 0 0 0 0 1 0 1 1 0 0 0 0 0 0 0
0 0 0 0 0 0 0 0 0 0 0 0 0 0 0 0 0 0 0 0 0 0 0 0 0 0 0 0 0 0 0 0 0 1 1 1 1 0 1 0 0 0 0 0
0 0 0 0 0 0 0 0 0 0 0 0 0 0 0 0 0 0 0 0 0 0 0 0 0 0 0 0 0 0 0 0 0 1 1 1 1 1 0 0 0 -0 -0 0
0 0 0 0 0 0 0 0 0 0 0 0 0 0 0 -0 0 0 0 0 0 0 0 0 0 -0 -0 -0 0 0 0 0 1 2 1 0 0 0 0 0 0 -0 -0 -0
0 0 0 0 0 0 0 0 0 0 0 0 0 0 0 0 0 0 0 0 0 0 0 0 -0 0 0 0 0 0 0 1 1 1 1 0 0 0 0 -0 -0 -0 0 -0
0 0 0 0 0 0 0 0 -0 0 0 0 0 0 0 0 0 0 0 -0 -0 -0 0 0 0 0 0 0 0 0 1 0 0 0 1 0 0 0 0 0 -0 0 0 0
0 0 0 0 0 0 0 0 0 0 -0 0 -0 0 0 0 0 -0 -0 -0 -0 -0 -0 0 0 0 0 0 0 1 0 0 0 1 1 0 0 0 0 0 0 0 0 0
0 0 0 0 0 0 -0 -0 0 0 0 0 0 -0 -0 -0 -0 -0 0 -0 -0 -0 -0 -0 0 0 0 0 0 0 0 0 0 0 0 0 0 0 0 0 0 0 0 0
0 0 0 -0 0 0 -0 0 0 0 0 0 -0 -0 -0 -0 -0 -0 -0 -0 -0 -0 -0 0 0 0 0 0 0 0 0 0 0 0 0 0 0 0 0 0 0 0 0 0
Wind_Speed_500mb
35 38 34 36 32 35 39 39 32 42 33 31 16 23 24 19 10 11 8 7 7 4 9 14 23 29 36 34 36 36 39 40 40 41 38 37 38 41 40 41 39 36 35 30
36 37 36 40 40 32 39 40 41 35 41 30 22 25 28 21 10 11 11 9 8 8 5 10 17 25 30 35 37 39 36 33 35 40 36 36 35 42 39 40 39 38 39 33
31 30 31 30 34 30 28 34 36 32 13 18 15 17 19 17 14 13 13 12 12 12 10 7 10 19 26 30 34 39 42 37 34 36 37 36 36 40 41 42 38 44 43 40
24 28 30 22 15 13 22 30 30 19 19 10 11 15 16 12 14 14 15 16 14 15 13 9 9 10 20 26 32 37 37 38 38 38 36 35 34 36 38 39 40 42 41 40
22 24 26 24 13 11 19 19 26 17 15 7 7 14 14 12 11 11 14 16 17 17 15 13 11 10 12 20 28 32 35 37 41 43 40 39 38 36 38 39 40 41 40 39
21 23 21 17 14 11 9 18 21 13 10 9 13 22 15 10 10 10 13 15 18 19 16 15 13 12 12 13 23 33 36 38 42 44 46 44 41 40 41 41 41 37 36 34
21 22 22 16 7 7 16 8 12 15 9 11 11 17 4 4 5 10 13 17 21 21 18 18 19 17 14 11 15 22 33 40 43 47 51 47 45 45 46 46 40 40 39 38
21 23 28 16 12 9 10 4 11 9 10 11 10 7 7 10 12 14 17 19 21 23 25 23 21 21 19 15 16 21 26 34 41 48 46 46 56 52 52 54 52 50 47 53
15 11 8 8 9 9 12 12 7 12 18 20 23 24 24 22 23 24 24 26 25 26 29 28 25 23 23 22 22 21 24 25 39 47 52 54 56 57 52 53 49 48 51 45
23 15 8 13 17 22 23 25 27 27 32 37 39 39 39 37 37 36 35 34 33 35 38 38 34 29 29 28 26 25 25 29 29 39 52 55 53 55 55 50 49 48 43 40
20 27 35 28 17 13 26 26 29 33 37 38 40 42 42 45 45 44 43 42 41 41 42 44 44 44 38 34 31 30 28 27 32 39 45 59 66 62 47 44 54 52 45 38
16 31 27 27 31 29 35 26 34 36 34 36 38 44 47 51 50 49 48 47 47 47 46 46 46 46 47 43 35 34 32 29 28 33 37 53 51 52 55 69 79 65 64 53
26 26 35 36 35 32 31 31 27 36 43 49 48 47 51 55 56 56 56 56 54 54 52 50 50 49 48 46 41 39 37 32 27 32 27 24 27 28 40 60 62 58 52 45
18 17 23 14 17 23 27 35 41 44 46 48 51 52 52 55 55 53 54 52 50 51 54 55 56 56 50 45 44 42 40 41 31 30 26 30 29 24 23 22 34 46 47 45
14 20 22 26 28 33 36 43 48 50 50 53 51 52 53 57 59 55 54 52 53 55 56 58 59 59 51 47 46 45 44 42 35 30 31 30 31 29 27 26 25 33 42 48
25 30 28 32 35 41 45 47 50 52 53 55 56 58 59 65 66 56 56 54 56 52 52 51 55 58 51 49 48 48 49 48 39 34 34 33 34 38 37 39 40 40 38 46
22 23 32 38 44 49 51 52 52 53 58 60 60 65 55 58 57 60 67 62 57 55 53 50 51 48 43 43 46 50 52 48 45 38 39 35 34 38 41 35 40 43 43 43
24 29 36 44 51 56 55 50 55 58 58 61 64 67 57 56 54 57 53 52 53 54 52 50 46 43 46 45 49 54 52 52 45 36 37 43 34 34 38 42 48 43 45 44
30 37 44 51 54 50 47 53 57 52 59 61 64 65 59 54 61 59 57 58 56 58 52 47 49 45 46 46 45 52 55 54 47 41 35 43 39 40 42 47 46 55 48 49
39 46 49 48 46 48 52 56 58 57 57 55 58 58 56 55 57 56 51 54 53 56 46 41 45 42 45 44 49 51 50 48 47 42 42 45 48 42 46 49 52 54 49 43
43 45 39 41 46 50 52 55 58 57 62 59 58 55 50 52 50 52 51 52 47 40 42 43 44 39 42 42 42 47 45 48 43 42 45 45 40 49 52 56 50 52 40 53
41 40 39 41 48 51 53 55 56 55 59 56 49 49 47 48 45 36 32 36 31 31 34 33 36 45 46 45 44 41 43 48 35 43 36 45 44 52 52 52 42 34 39 44
32 33 38 41 46 49 52 50 59 55 51 52 46 45 41 41 28 24 26 20 17 16 20 27 41 44 38 31 36 39 43 32 33 45 41 56 52 47 56 50 50 47 34 35
35 37 41 40 45 47 55 58 54 43 36 28 25 29 34 29 22 19 21 24 21 22 20 31 19 19 31 28 33 35 35 30 35 40 42 53 50 50 52 50 61 35 46 42
33 36 41 44 48 44 47 49 42 38 30 24 22 22 18 22 20 24 23 15 17 16 14 22 30 33 35 32 31 33 25 26 33 39 41 41 45 44 41 45 50 52 49 49
26 35 37 36 35 37 39 34 32 31 29 27 25 20 16 16 16 13 8 4 6 9 10 10 11 12 20 28 36 35 36 35 41 46 49 40 25 39 36 47 42 38 33 29
34 38 43 39 34 33 35 34 25 29 28 26 21 21 21 17 12 2 8 9 5 10 13 14 11 3 12 21 32 40 45 51 46 55 55 49 42 24 24 19 22 33 33 27
Wind_Direction_500mb
287 287 296 291 283 287 283 292 291 306 292 138 110 108 92 76 59 59 41 33 21 318 201 213 211 210 208 209 205 211 202 203 210 218 217 217 209 221 219 220 221 231 232 223
280 281 279 275 272 266 268 269 273 275 280 95 113 102 98 92 68 59 50 30 18 12 335 242 227 221 216 213 210 207 209 214 214 218 219 222 229 233 232 226 221 220 227 230
281 295 281 272 260 266 269 272 280 270 70 106 106 92 90 105 86 51 41 37 26 19 3 315 258 235 226 223 220 222 221 219 215 216 220 223 226 230 228 224 216 221 220 221
272 280 270 269 34 321 295 304 301 319 102 47 77 108 97 72 71 51 31 24 26 22 7 328 296 277 240 231 228 225 223 214 211 213 217 222 217 219 223 223 221 221 222 224
268 260 267 258 61 360 343 313 12 312 96 66 170 138 107 65 58 38 20 12 13 18 360 351 335 303 277 241 235 232 229 225 218 218 217 219 224 221 216 216 221 221 220 223
258 278 284 79 61 25 348 250 48 21 30 347 311 225 82 28 23 22 13 358 355 3 3 360 344 325 285 269 246 240 235 231 228 229 224 223 228 226 222 215 214 215 220 222
250 254 262 70 359 339 258 51 34 0 5 339 340 13 39 324 347 354 346 346 346 348 348 346 347 342 331 299 268 263 244 240 233 228 226 228 226 225 221 216 211 215 217 222
234 250 259 25 279 315 49 83 3 15 13 330 312 291 286 296 303 313 318 324 328 330 329 334 334 337 335 318 297 289 256 247 240 234 226 227 225 226 223 220 214 217 213 221
315 24 139 2 352 18 319 302 277 309 307 303 296 293 293 290 288 290 289 292 298 302 307 312 316 316 315 315 313 294 279 259 243 238 232 224 227 223 221 222 215 218 219 220
301 292 346 341 302 300 289 286 286 291 298 298 292 288 286 285 283 283 284 284 285 283 286 289 291 295 296 297 302 301 289 277 263 248 241 232 230 226 220 218 222 225 222 222
281 275 282 278 287 321 310 292 288 289 290 293 291 289 290 289 287 284 282 281 280 278 276 276 280 280 279 282 284 289 289 275 258 246 246 243 233 226 219 237 233 226 226 224
285 336 323 302 296 298 289 284 288 283 288 291 293 292 291 288 286 284 281 279 279 276 273 273 275 276 272 266 271 272 276 285 271 272 274 255 249 239 222 219 237 228 224 209
279 301 301 291 286 284 276 277 292 293 290 290 290 290 289 288 287 284 281 278 277 274 272 270 271 272 273 264 260 260 259 262 258 263 249 259 277 266 247 235 231 231 218 215
304 286 279 287 289 295 296 293 292 289 289 289 289 290 289 289 288 287 284 280 278 276 272 269 266 266 270 266 258 253 249 253 254 249 249 240 244 250 234 239 220 208 204 207
267 284 278 287 288 288 296 299 296 292 292 292 292 291 293 295 293 287 284 279 278 276 274 271 265 262 262 264 254 247 242 243 247 245 242 245 245 225 219 211 203 200 208 211
290 280 286 289 294 300 300 299 295 294 296 296 293 291 290 293 286 282 276 277 274 275 274 273 265 257 258 257 250 240 237 236 234 241 243 242 232 219 222 222 220 216 213 204
268 286 300 303 301 303 301 297 300 302 299 293 293 293 288 293 283 279 279 277 272 270 270 266 264 255 257 249 240 234 231 233 235 240 240 233 219 220 224 217 217 212 209 199
284 291 297 301 301 301 301 303 298 296 295 293 293 292 285 285 285 284 278 278 277 273 267 258 252 251 251 243 238 235 225 229 222 229 236 225 224 222 218 215 207 195 193 199
295 298 300 301 301 305 302 299 294 298 300 294 292 289 285 280 288 288 284 277 271 271 265 256 252 244 245 237 231 229 227 229 232 226 233 226 225 221 217 209 202 189 188 193
301 301 302 307 307 305 302 298 302 299 297 298 295 292 286 284 289 290 280 277 271 266 263 251 248 240 236 231 226 219 223 231 239 222 229 228 226 214 203 193 187 187 188 194
306 307 315 313 307 306 303 305 303 297 302 298 297 294 288 290 291 287 280 278 279 266 254 246 240 241 218 220 221 219 226 237 231 226 229 221 210 199 192 182 193 192 189 194
312 316 314 312 311 311 311 307 307 300 296 300 297 294 296 295 296 294 288 276 281 254 243 231 228 225 219 227 213 223 227 240 223 224 213 208 197 194 194 193 188 187 197 194
316 314 315 315 316 315 317 318 318 312 299 294 284 292 295 296 297 305 304 310 298 279 241 235 227 223 223 216 221 224 223 224 225 215 206 192 194 196 194 191 185 207 185 207
317 321 319 317 316 317 326 330 335 331 325 303 289 299 299 296 307 309 294 298 278 287 263 263 275 220 223 221 226 240 213 223 215 210 200 204 202 194 192 201 197 211 194 171
329 329 328 324 324 324 324 327 333 336 342 337 331 317 320 303 299 312 314 302 298 261 258 259 246 240 235 231 227 229 228 215 204 190 186 184 195 200 199 222 169 166 166 176
357 347 346 343 342 338 337 338 345 356 354 358 350 355 350 322 306 334 16 41 318 315 315 325 248 223 219 219 217 220 214 211 207 198 192 172 131 137 119 101 131 140 143 166
8 5 1 4 4 357 359 1 353 356 3 360 353 354 353 347 349 356 184 187 326 14 25 16 20 196 229 209 200 195 185 182 187 176 173 177 189 230 152 169 209 182 181 168
Wind_Speed_850mb
35 38 34 36 32 35 39 39 32 42 33 31 16 23 24 19 10 11 8 7 7 4 9 14 23 29 36 34 36 36 39 40 40 41 38 37 38 41 40 41 39 36 35 30
36 37 36 40 40 32 39 40 41 35 41 30 22 25 28 21 10 11 11 9 8 8 5 10 17 25 30 35 37 39 36 33 35 40 36 36 35 42 39 40 39 38 39 33
31 30 31 30 34 30 28 34 36 32 13 18 15 17 19 17 14 13 13 12 12 12 10 7 10 19 26 30 34 39 42 37 34 36 37 36 36 40 41 42 38 44 43 40
24 28 30 22 15 13 22 30 30 19 19 10 11 15 16 12 14 14 15 16 14 15 13 9 9 10 20 26 32 37 37 38 38 38 36 35 34 36 38 39 40 42 41 40
22 24 26 24 13 11 19 19 26 17 15 7 7 14 14 12 11 11 14 16 17 17 15 13 11 10 12 20 28 32 35 37 41 43 40 39 38 36 38 39 40 41 40 39
21 23 21 17 14 11 9 18 21 13 10 9 13 22 15 10 10 10 13 15 18 19 16 15 13 12 12 13 23 33 36 38 42 44 46 44 41 40 41 41 41 37 36 34
21 22 22 16 7 7 16 8 12 15 9 11 11 17 4 4 5 10 13 17 21 21 18 18 19 17 14 11 15 22 33 40 43 47 51 47 45 45 46 46 40 40 39 38
21 23 28 16 12 9 10 4 11 9 10 11 10 7 7 10 12 14 17 19 21 23 25 23 21 21 19 15 16 21 26 34 41 48 46 46 56 52 52 54 52 50 47 53
15 11 8 8 9 9 12 12 7 12 18 20 23 24 24 22 23 24 24 26 25 26 29 28 25 23 23 22 22 21 24 25 39 47 52 54 56 57 52 53 49 48 51 45
23 15 8 13 17 22 23 25 27 27 32 37 39 39 39 37 37 36 35 34 33 35 38 38 34 29 29 28 26 25 25 29 29 39 52 55 53 55 55 50 49 48 43 40
20 27 35 28 17 13 26 26 29 33 37 38 40 42 42 45 45 44 43 42 41 41 42 44 44 44 38 34 31 30 28 27 32 39 45 59 66 62 47 44 54 52 45 38
16 31 27 27 31 29 35 26 34 36 34 36 38 44 47 51 50 49 48 47 47 47 46 46 46 46 47 43 35 34 32 29 28 33 37 53 51 52 55 69 79 65 64 53
26 26 35 36 35 32 31 31 27 36 43 49 48 47 51 55 56 56 56 56 54 54 52 50 50 49 48 46 41 39 37 32 27 32 27 24 27 28 40 60 62 58 52 45
18 17 23 14 17 23 27 35 41 44 46 48 51 52 52 55 55 53 54 52 50 51 54 55 56 56 50 45 44 42 40 41 31 30 26 30 29 24 23 22 34 46 47 45
14 20 22 26 28 33 36 43 48 50 50 53 51 52 53 57 59 55 54 52 53 55 56 58 59 59 51 47 46 45 44 42 35 30 31 30 31 29 27 26 25 33 42 48
25 30 28 32 35 41 45 47 50 52 53 55 56 58 59 65 66 56 56 54 56 52 52 51 55 58 51 49 48 48 49 48 39 34 34 33 34 38 37 39 40 40 38 46
22 23 32 38 44 49 51 52 52 53 58 60 60 65 55 58 57 60 67 62 57 55 53 50 51 48 43 43 46 50 52 48 45 38 39 35 34 38 41 35 40 43 43 43
24 29 36 44 51 56 55 50 55 58 58 61 64 67 57 56 54 57 53 52 53 54 52 50 46 43 46 45 49 54 52 52 45 36 37 43 34 34 38 42 48 43 45 44
30 37 44 51 54 50 47 53 57 52 59 61 64 65 59 54 61 59 57 58 56 58 52 47 49 45 46 46 45 52 55 54 47 41 35 43 39 40 42 47 46 55 48 49
39 46 49 48 46 48 52 56 58 57 57 55 58 58 56 55 57 56 51 54 53 56 46 41 45 42 45 44 49 51 50 48 47 42 42 45 48 42 46 49 52 54 49 43
43 45 39 41 46 50 52 55 58 57 62 59 58 55 50 52 50 52 51 52 47 40 42 43 44 39 42 42 42 47 45 48 43 42 45 45 40 49 52 56 50 52 40 53
41 40 39 41 48 51 53 55 56 55 59 56 49 49 47 48 45 36 32 36 31 31 34 33 36 45 46 45 44 41 43 48 35 43 36 45 44 52 52 52 42 34 39 44
32 33 38 41 46 49 52 50 59 55 51 52 46 45 41 41 28 24 26 20 17 16 20 27 41 44 38 31 36 39 43 32 33 45 41 56 52 47 56 50 50 47 34 35
35 37 41 40 45 47 55 58 54 43 36 28 25 29 34 29 22 19 21 24 21 22 20 31 19 19 31 28 33 35 35 30 35 40 42 53 50 50 52 50 61 35 46 42
33 36 41 44 48 44 47 49 42 38 30 24 22 22 18 22 20 24 23 15 17 16 14 22 30 33 35 32 31 33 25 26 33 39 41 41 45 44 41 45 50 52 49 49
26 35 37 36 35 37 39 34 32 31 29 27 25 20 16 16 16 13 8 4 6 9 10 10 11 12 20 28 36 35 36 35 41 46 49 40 25 39 36 47 42 38 33 29
34 38 43 39 34 33 35 34 25 29 28 26 21 21 21 17 12 2 8 9 5 10 13 14 11 3 12 21 32 40 45 51 46 55 55 49 42 24 24 19 22 33 33 27
Wind_Direction_850mb
287 287 296 291 283 287 283 292 291 306 292 138 110 108 92 76 59 59 41 33 21 318 201 213 211 210 208 209 205 211 202 203 210 218 217 217 209 221 219 220 221 231 232 223
280 281 279 275 272 266 268 269 273 275 280 95 113 102 98 92 68 59 50 30 18 12 335 242 227 221 216 213 210 207 209 214 214 218 219 222 229 233 232 226 221 220 227 230
281 295 281 272 260 266 269 272 280 270 70 106 106 92 90 105 86 51 41 37 26 19 3 315 258 235 226 223 220 222 221 219 215 216 220 223 226 230 228 224 216 221 220 221
272 280 270 269 34 321 295 304 301 319 102 47 77 108 97 72 71 51 31 24 26 22 7 328 296 277 240 231 228 225 223 214 211 213 217 222 217 219 223 223 221 221 222 224
268 260 267 258 61 360 343 313 12 312 96 66 170 138 107 65 58 38 20 12 13 18 360 351 335 303 277 241 235 232 229 225 218 218 217 219 224 221 216 216 221 221 220 223
258 278 284 79 61 25 348 250 48 21 30 347 311 225 82 28 23 22 13 358 355 3 3 360 344 325 285 269 246 240 235 231 228 229 224 223 228 226 222 215 214 215 220 222
250 254 262 70 359 339 258 51 34 0 5 339 340 13 39 324 347 354 346 346 346 348 348 346 347 342 331 299 268 263 244 240 233 228 226 228 226 225 221 216 211 215 217 222
234 250 259 25 279 315 49 83 3 15 13 330 312 291 286 296 303 313 318 324 328 330 329 334 334 337 335 318 297 289 256 247 240 234 226 227 225 226 223 220 214 217 213 221
315 24 139 2 352 18 319 302 277 309 307 303 296 293 293 290 288 290 289 292 298 302 307 312 316 316 315 315 313 294 279 259 243 238 232 224 227 223 221 222 215 218 219 220
301 292 346 341 302 300 289 286 286 291 298 298 292 288 286 285 283 283 284 284 285 283 286 289 291 295 296 297 302 301 289 277 263 248 241 232 230 226 220 218 222 225 222 222
281 275 282 278 287 321 310 292 288 289 290 293 291 289 290 289 287 284 282 281 280 278 276 276 280 280 279 282 284 289 289 275 258 246 246 243 233 226 219 237 233 226 226 224
285 336 323 302 296 298 289 284 288 283 288 291 293 292 291 288 286 284 281 279 279 276 273 273 275 276 272 266 271 272 276 285 271 272 274 255 249 239 222 219 237 228 224 209
279 301 301 291 286 284 276 277 292 293 290 290 290 290 289 288 287 284 281 278 277 274 272 270 271 272 273 264 260 260 259 262 258 263 249 259 277 266 247 235 231 231 218 215
304 286 279 287 289 295 296 293 292 289 289 289 289 290 289 289 288 287 284 280 278 276 272 269 266 266 270 266 258 253 249 253 254 249 249 240 244 250 234 239 220 208 204 207
267 284 278 287 288 288 296 299 296 292 292 292 292 291 293 295 293 287 284 279 278 276 274 271 265 262 262 264 254 247 242 243 247 245 242 245 245 225 219 211 203 200 208 211
290 280 286 289 294 300 300 299 295 294 296 296 293 291 290 293 286 282 276 277 274 275 274 273 265 257 258 257 250 240 237 236 234 241 243 242 232 219 222 222 220 216 213 204
268 286 300 303 301 303 301 297 300 302 299 293 293 293 288 293 283 279 279 277 272 270 270 266 264 255 257 249 240 234 231 233 235 240 240 233 219 220 224 217 217 212 209 199
284 291 297 301 301 301 301 303 298 296 295 293 293 292 285 285 285 284 278 278 277 273 267 258 252 251 251 243 238 235 225 229 222 229 236 225 224 222 218 215 207 195 193 199
295 298 300 301 301 305 302 299 294 298 300 294 292 289 285 280 288 288 284 277 271 271 265 256 252 244 245 237 231 229 227 229 232 226 233 226 225 221 217 209 202 189 188 193
301 301 302 307 307 305 302 298 302 299 297 298 295 292 286 284 289 290 280 277 271 266 263 251 248 240 236 231 226 219 223 231 239 222 229 228 226 214 203 193 187 187 188 194
306 307 315 313 307 306 303 305 303 297 302 298 297 294 288 290 291 287 280 278 279 266 254 246 240 241 218 220 221 219 226 237 231 226 229 221 210 199 192 182 193 192 189 194
312 316 314 312 311 311 311 307 307 300 296 300 297 294 296 295 296 294 288 276 281 254 243 231 228 225 219 227 213 223 227 240 223 224 213 208 197 194 194 193 188 187 197 194
316 314 315 315 316 315 317 318 318 312 299 294 284 292 295 296 297 305 304 310 298 279 241 235 227 223 223 216 221 224 223 224 225 215 206 192 194 196 194 191 185 207 185 207
317 321 319 317 316 317 326 330 335 331 325 303 289 299 299 296 307 309 294 298 278 287 263 263 275 220 223 221 226 240 213 223 215 210 200 204 202 194 192 201 197 211 194 171
329 329 328 324 324 324 324 327 333 336 342 337 331 317 320 303 299 312 314 302 298 261 258 259 246 240 235 231 227 229 228 215 204 190 186 184 195 200 199 222 169 166 166 176
357 347 346 343 342 338 337 338 345 356 354 358 350 355 350 322 306 334 16 41 318 315 315 325 248 223 219 219 217 220 214 211 207 198 192 172 131 137 119 101 131 140 143 166
8 5 1 4 4 357 359 1 353 356 3 360 353 354 353 347 349 356 184 187 326 14 25 16 20 196 229 209 200 195 185 182 187 176 173 177 189 230 152 169 209 182 181 168